Starlink 3930

operational
NORAD ID: 52568 Int'l Des: 2022-051 Owner: SPXS Country: US Constellation: starlink
LEOCIRCULAR

关于 Starlink 3930

正在加载描述...

实时位置

正在加载3D地球...

即将过境

高度历史

Altitude vs Time

uPlot chart will show altitude changes over time

两行轨道根数

1 52568U 22051AM 25352.68100346 .00000066 00000-0 22254-4 0 9992
2 52568 53.2184 122.7836 0001385 89.4496 270.6655 15.08836962199353
Epoch: Dec 18, 2025 • Age: 13 hours

当前状态

高度 542.8 km
速度 7.60 km/s
星下点 41.23°N, 87.38°E
发射日期 May 13, 2022
运行时间 3.6 years
类型 internet

技术详情

分类 Payload
质量 297.00 kg
干质量 275.00 kg
总质量 297.00 kg
长度 0.20 m
直径 2.80 m
跨度 9.00 m
形状 Box + pan
制造商 SPXS
平台类型 Starlink
阶段状态 In Orbit
所有者/国家 SPXS/US

大型星座

Loading constellations...